Zurück zum Katalog

STARLINK-38237

AktivKommunikationSSO
NORAD 100373·PAYLOAD·🇺🇸 United States

Gestartet Aug 19, 2026 von Vandenberg Space Force Base

Loading…

Nächste Überflüge (nächste 24 Stunden)

TLE

AktuellSource: Space-Track

Epoche: Sep 14, 2026, 13:54 UTC

1 A0373U 26190C   26257.57937220  .00090783  00000-0  60246-3 0  9996
2 A0373  97.2838 111.6445 0001360  82.7588 277.3832 15.75213297  5449

Verfolge STARLINK-38237 in Echtzeit mit AllMySat

Download on the App Store